When you browse on this site, cookies collect data to enhance your experience and personalize the content and advertising you see.
Visit our Privacy Policy to learn more. By continuing to use the site, you agree to this use of cookies and data.
  • In Deutschland
  • Länderverzeichnis
  • Für 7 Tage
  • Wassertemperatur
  • Wetterkarte
  • Widgets
  • user-avatar
    Anmelden

    Stündliche Wetter Shkoder

    Heute, 31 Mai, Sonntag

    Zeit Temperatur Niederschläge Wind Luftdruck Luftfeuchtigkeit
    00:00 +13°C° 0 mm 1 m/S 739 mmHg 79%
    01:00 +13°C° 0 mm 1 m/S 739 mmHg 76%
    02:00 +13°C° 0.1 mm 1 m/S 739 mmHg 77%
    03:00 +13°C° 0.1 mm 1 m/S 739 mmHg 79%
    04:00 +13°C° 0.1 mm 1 m/S 738 mmHg 81%
    05:00 +13°C° 0.4 mm 1 m/S 738 mmHg 83%
    06:00 +13°C° 0.4 mm 1 m/S 738 mmHg 84%
    07:00 +14°C° 0 mm 1 m/S 738 mmHg 86%
    08:00 +14°C° 0.4 mm 1 m/S 738 mmHg 85%
    09:00 +14°C° 0.4 mm 1 m/S 738 mmHg 84%
    10:00 +15°C° 0.4 mm 1 m/S 738 mmHg 83%
    11:00 +16°C° 0.4 mm 1 m/S 738 mmHg 80%
    12:00 +17°C° 0.4 mm 2 m/S 737 mmHg 77%
    13:00 +18°C° 0.4 mm 2 m/S 737 mmHg 73%
    14:00 +18°C° 0.4 mm 2 m/S 737 mmHg 72%
    15:00 +18°C° 0.4 mm 2 m/S 737 mmHg 71%
    16:00 +20°C° 0.4 mm 1 m/S 737 mmHg 70%
    17:00 +18°C° 0.5 mm 1 m/S 737 mmHg 75%
    18:00 +16°C° 0.5 mm 1 m/S 737 mmHg 81%
    19:00 +14°C° 0.5 mm 1 m/S 737 mmHg 87%
    20:00 +14°C° 0.3 mm 1 m/S 737 mmHg 87%
    21:00 +13°C° 0.3 mm 1 m/S 738 mmHg 88%
    22:00 +13°C° 0.3 mm 1 m/S 738 mmHg 88%
    23:00 +13°C° 0.4 mm 1 m/S 738 mmHg 89%

    Morgen, 1 Juni, Montag

    Zeit Temperatur Niederschläge Wind Luftdruck Luftfeuchtigkeit
    00:00 +12°C° 0.4 mm 1 m/S 738 mmHg 89%
    01:00 +12°C° 0.4 mm 1 m/S 738 mmHg 90%
    02:00 +12°C° 0.4 mm 1 m/S 738 mmHg 90%
    03:00 +12°C° 0.4 mm 1 m/S 738 mmHg 91%
    04:00 +12°C° 0.4 mm 2 m/S 737 mmHg 91%
    05:00 +13°C° 0.1 mm 1 m/S 738 mmHg 87%
    06:00 +14°C° 0.1 mm 1 m/S 738 mmHg 83%
    07:00 +15°C° 0.1 mm 1 m/S 738 mmHg 79%
    08:00 +16°C° 0.4 mm 1 m/S 738 mmHg 74%
    09:00 +18°C° 0.4 mm 1 m/S 738 mmHg 70%
    10:00 +20°C° 0.4 mm 1 m/S 738 mmHg 66%
    11:00 +20°C° 0.5 mm 1 m/S 738 mmHg 65%
    12:00 +19°C° 0.5 mm 2 m/S 737 mmHg 64%
    13:00 +20°C° 0.5 mm 2 m/S 737 mmHg 63%
    14:00 +20°C° 0.5 mm 2 m/S 737 mmHg 65%
    15:00 +19°C° 0.5 mm 2 m/S 737 mmHg 66%
    16:00 +19°C° 0.5 mm 2 m/S 737 mmHg 67%
    17:00 +18°C° 0.3 mm 2 m/S 737 mmHg 72%
    18:00 +18°C° 0.3 mm 1 m/S 737 mmHg 77%
    19:00 +15°C° 0.3 mm 1 m/S 737 mmHg 82%
    20:00 +15°C° 0 mm 1 m/S 737 mmHg 82%
    21:00 +14°C° 0 mm 2 m/S 737 mmHg 81%
    22:00 +13°C° 0 mm 2 m/S 738 mmHg 81%
    23:00 +13°C° 0 mm 2 m/S 737 mmHg 81%

    übermorgen, 2 Juni, Dienstag

    Zeit Temperatur Niederschläge Wind Luftdruck Luftfeuchtigkeit
    00:00 +13°C° 0 mm 2 m/S 737 mmHg 82%
    01:00 +13°C° 0 mm 2 m/S 737 mmHg 82%
    02:00 +13°C° 0 mm 2 m/S 737 mmHg 82%
    03:00 +12°C° 0 mm 2 m/S 737 mmHg 82%
    04:00 +12°C° 0 mm 2 m/S 737 mmHg 82%
    05:00 +14°C° 0 mm 2 m/S 737 mmHg 78%
    06:00 +15°C° 0 mm 2 m/S 737 mmHg 74%
    07:00 +17°C° 0 mm 2 m/S 737 mmHg 69%
    08:00 +18°C° 0 mm 2 m/S 737 mmHg 64%
    09:00 +20°C° 0 mm 2 m/S 737 mmHg 59%
    10:00 +22°C° 0 mm 1 m/S 737 mmHg 54%
    11:00 +21°C° 0.2 mm 2 m/S 737 mmHg 54%
    12:00 +23°C° 0.2 mm 2 m/S 736 mmHg 54%
    13:00 +23°C° 0.2 mm 2 m/S 736 mmHg 55%
    14:00 +23°C° 0.4 mm 2 m/S 736 mmHg 57%
    15:00 +21°C° 0.4 mm 2 m/S 736 mmHg 60%
    16:00 +21°C° 0.4 mm 2 m/S 736 mmHg 63%
    17:00 +19°C° 0.4 mm 2 m/S 735 mmHg 69%
    18:00 +19°C° 0.4 mm 1 m/S 735 mmHg 75%
    19:00 +16°C° 0.4 mm 1 m/S 735 mmHg 82%
    20:00 +15°C° 0.1 mm 1 m/S 735 mmHg 83%
    21:00 +15°C° 0.1 mm 2 m/S 736 mmHg 85%
    22:00 +14°C° 0.1 mm 2 m/S 736 mmHg 86%
    23:00 +14°C° 0 mm 2 m/S 736 mmHg 85%

    3 Juni, Mittwoch

    Zeit Temperatur Niederschläge Wind Luftdruck Luftfeuchtigkeit
    00:00 +14°C° 0 mm 2 m/S 736 mmHg 84%
    01:00 +14°C° 0 mm 2 m/S 736 mmHg 84%
    02:00 +13°C° 0 mm 2 m/S 735 mmHg 83%
    03:00 +13°C° 0 mm 2 m/S 735 mmHg 83%
    04:00 +13°C° 0 mm 2 m/S 735 mmHg 83%
    05:00 +14°C° 0 mm 2 m/S 735 mmHg 78%
    06:00 +15°C° 0 mm 1 m/S 735 mmHg 73%
    07:00 +18°C° 0 mm 1 m/S 735 mmHg 69%
    08:00 +19°C° 0 mm 1 m/S 735 mmHg 65%
    09:00 +20°C° 0 mm 1 m/S 735 mmHg 60%
    10:00 +21°C° 0 mm 1 m/S 736 mmHg 56%
    11:00 +22°C° 0.1 mm 1 m/S 735 mmHg 55%
    12:00 +21°C° 0.1 mm 2 m/S 735 mmHg 53%
    13:00 +23°C° 0.1 mm 2 m/S 735 mmHg 52%
    14:00 +21°C° 0.1 mm 2 m/S 735 mmHg 54%
    15:00 +21°C° 0.1 mm 2 m/S 735 mmHg 56%
    16:00 +21°C° 0.1 mm 3 m/S 735 mmHg 58%
    17:00 +20°C° 0 mm 2 m/S 735 mmHg 65%
    18:00 +19°C° 0 mm 1 m/S 735 mmHg 72%
    19:00 +16°C° 0 mm 1 m/S 735 mmHg 79%
    20:00 +16°C° 0 mm 1 m/S 736 mmHg 80%
    21:00 +15°C° 0 mm 1 m/S 736 mmHg 80%
    22:00 +15°C° 0 mm 1 m/S 737 mmHg 81%
    23:00 +14°C° 0 mm 1 m/S 737 mmHg 80%

    4 Juni, Donnerstag

    Zeit Temperatur Niederschläge Wind Luftdruck Luftfeuchtigkeit
    00:00 +14°C° 0 mm 1 m/S 737 mmHg 80%
    01:00 +14°C° 0 mm 1 m/S 737 mmHg 80%
    02:00 +14°C° 0 mm 1 m/S 737 mmHg 80%
    03:00 +13°C° 0 mm 1 m/S 737 mmHg 80%
    04:00 +13°C° 0 mm 1 m/S 737 mmHg 80%
    05:00 +15°C° 0 mm 1 m/S 737 mmHg 76%
    06:00 +18°C° 0 mm 1 m/S 737 mmHg 71%
    07:00 +19°C° 0 mm 1 m/S 737 mmHg 67%
    08:00 +21°C° 0 mm 1 m/S 738 mmHg 63%
    09:00 +21°C° 0 mm 2 m/S 738 mmHg 59%
    10:00 +23°C° 0 mm 2 m/S 738 mmHg 54%
    11:00 +24°C° 0 mm 2 m/S 738 mmHg 53%
    12:00 +24°C° 0 mm 3 m/S 738 mmHg 53%
    13:00 +25°C° 0 mm 3 m/S 738 mmHg 52%
    14:00 +24°C° 0 mm 3 m/S 738 mmHg 53%
    15:00 +24°C° 0 mm 3 m/S 738 mmHg 55%
    16:00 +24°C° 0 mm 3 m/S 738 mmHg 57%
    17:00 +21°C° 0 mm 2 m/S 738 mmHg 64%
    18:00 +19°C° 0 mm 2 m/S 738 mmHg 71%
    19:00 +19°C° 0 mm 1 m/S 738 mmHg 78%
    20:00 +18°C° 0 mm 1 m/S 738 mmHg 79%
    21:00 +16°C° 0 mm 1 m/S 738 mmHg 80%
    22:00 +16°C° 0 mm 1 m/S 739 mmHg 81%
    23:00 +16°C° 0 mm 1 m/S 739 mmHg 79%

    5 Juni, Freitag

    Zeit Temperatur Niederschläge Wind Luftdruck Luftfeuchtigkeit
    00:00 +16°C° 0 mm 1 m/S 739 mmHg 78%
    01:00 +16°C° 0 mm 1 m/S 739 mmHg 76%
    02:00 +16°C° 0 mm 1 m/S 739 mmHg 74%
    03:00 +16°C° 0 mm 1 m/S 739 mmHg 72%
    04:00 +16°C° 0 mm 1 m/S 739 mmHg 71%
    05:00 +18°C° 0 mm 1 m/S 739 mmHg 67%
    06:00 +20°C° 0 mm 1 m/S 739 mmHg 63%
    07:00 +22°C° 0 mm 1 m/S 740 mmHg 60%
    08:00 +23°C° 0 mm 2 m/S 740 mmHg 57%
    09:00 +24°C° 0 mm 2 m/S 740 mmHg 54%
    10:00 +25°C° 0 mm 2 m/S 740 mmHg 51%
    11:00 +25°C° 0 mm 2 m/S 740 mmHg 51%
    12:00 +26°C° 0 mm 3 m/S 739 mmHg 51%
    13:00 +26°C° 0 mm 3 m/S 739 mmHg 51%
    14:00 +26°C° 0 mm 3 m/S 739 mmHg 54%
    15:00 +25°C° 0 mm 3 m/S 739 mmHg 57%
    16:00 +24°C° 0 mm 3 m/S 739 mmHg 60%
    17:00 +23°C° 0 mm 2 m/S 739 mmHg 65%
    18:00 +20°C° 0 mm 2 m/S 739 mmHg 71%
    19:00 +20°C° 0 mm 1 m/S 739 mmHg 77%
    20:00 +19°C° 0 mm 1 m/S 740 mmHg 74%
    21:00 +19°C° 0 mm 1 m/S 740 mmHg 70%
    22:00 +19°C° 0 mm 1 m/S 740 mmHg 67%
    23:00 +19°C° 0 mm 1 m/S 740 mmHg 65%
    Mehr zeigen